Tiempo cada hora Bartniki

Hoy, 6 Marzo, Sábado

Tiempo Temperatura Precipitaciones Viento Presión Humedad
00:00 -4°C° 0 mm 3 mps 758 mmHg 77%
01:00 -4°C° 0 mm 3 mps 758 mmHg 78%
02:00 -4°C° 0 mm 3 mps 758 mmHg 78%
03:00 -4°C° 0 mm 3 mps 758 mmHg 78%
04:00 -4°C° 0 mm 3 mps 758 mmHg 77%
05:00 -3°C° 0 mm 2 mps 758 mmHg 77%
06:00 -3°C° 0 mm 2 mps 759 mmHg 76%
07:00 -3°C° 0 mm 2 mps 759 mmHg 75%
08:00 -2°C° 0 mm 3 mps 759 mmHg 67%
09:00 0°C° 0 mm 3 mps 759 mmHg 59%
10:00 0°C° 0 mm 4 mps 759 mmHg 51%
11:00 +1°C° 0 mm 4 mps 759 mmHg 49%
12:00 +1°C° 0 mm 5 mps 758 mmHg 46%
13:00 +2°C° 0 mm 5 mps 758 mmHg 44%
14:00 +2°C° 0 mm 5 mps 758 mmHg 45%
15:00 +2°C° 0 mm 5 mps 757 mmHg 46%
16:00 +1°C° 0 mm 5 mps 757 mmHg 48%
17:00 0°C° 0 mm 5 mps 756 mmHg 54%
18:00 -1°C° 0 mm 5 mps 756 mmHg 60%
19:00 -2°C° 0 mm 5 mps 755 mmHg 67%
20:00 -2°C° 0 mm 6 mps 755 mmHg 73%
21:00 -2°C° 0 mm 6 mps 755 mmHg 79%
22:00 -2°C° 0 mm 7 mps 754 mmHg 85%
23:00 -2°C° 0 mm 7 mps 754 mmHg 84%

Mañana, 7 Marzo, Domingo

Tiempo Temperatura Precipitaciones Viento Presión Humedad
00:00 -2°C° 0 mm 7 mps 753 mmHg 82%
01:00 -4°C° 0 mm 8 mps 753 mmHg 80%
02:00 -4°C° 0 mm 8 mps 752 mmHg 82%
03:00 -4°C° 0 mm 8 mps 752 mmHg 85%
04:00 -4°C° 0 mm 9 mps 751 mmHg 87%
05:00 -4°C° 0.2 mm 9 mps 751 mmHg 89%
06:00 -4°C° 0.2 mm 9 mps 751 mmHg 90%
07:00 -4°C° 0.2 mm 9 mps 751 mmHg 92%
08:00 -3°C° 0.1 mm 9 mps 751 mmHg 88%
09:00 -3°C° 0.1 mm 9 mps 750 mmHg 84%
10:00 -1°C° 0.1 mm 9 mps 750 mmHg 80%
11:00 -1°C° 0.1 mm 9 mps 750 mmHg 82%
12:00 -3°C° 0.1 mm 9 mps 750 mmHg 84%
13:00 -2°C° 0.1 mm 8 mps 750 mmHg 86%
14:00 -2°C° 0.1 mm 8 mps 749 mmHg 87%
15:00 -2°C° 0.1 mm 8 mps 749 mmHg 88%
16:00 -2°C° 0.1 mm 8 mps 749 mmHg 89%
17:00 -2°C° 0.4 mm 7 mps 749 mmHg 91%
18:00 -2°C° 0.4 mm 7 mps 749 mmHg 93%
19:00 -3°C° 0.4 mm 6 mps 749 mmHg 95%
20:00 -2°C° 0.5 mm 4 mps 749 mmHg 94%
21:00 -2°C° 0.5 mm 3 mps 749 mmHg 92%
22:00 -3°C° 0.5 mm 2 mps 749 mmHg 91%
23:00 -3°C° 0 mm 2 mps 749 mmHg 90%

Pasado mañana, 8 Marzo, Lunes

Tiempo Temperatura Precipitaciones Viento Presión Humedad
00:00 -3°C° 0 mm 2 mps 749 mmHg 90%
01:00 -5°C° 0 mm 3 mps 749 mmHg 90%
02:00 -4°C° 0 mm 2 mps 750 mmHg 89%
03:00 -4°C° 0 mm 2 mps 750 mmHg 89%
04:00 -5°C° 0 mm 2 mps 750 mmHg 88%
05:00 -5°C° 0 mm 3 mps 750 mmHg 87%
06:00 -5°C° 0 mm 3 mps 751 mmHg 85%
07:00 -5°C° 0 mm 4 mps 751 mmHg 84%
08:00 -4°C° 0 mm 4 mps 751 mmHg 78%
09:00 -3°C° 0 mm 4 mps 752 mmHg 73%
10:00 -2°C° 0 mm 5 mps 752 mmHg 67%
11:00 -1°C° 0.1 mm 5 mps 753 mmHg 65%
12:00 -1°C° 0.1 mm 5 mps 753 mmHg 62%
13:00 0°C° 0.1 mm 5 mps 753 mmHg 59%
14:00 -1°C° 0.1 mm 5 mps 753 mmHg 61%
15:00 -1°C° 0.1 mm 5 mps 753 mmHg 62%
16:00 -1°C° 0.1 mm 5 mps 753 mmHg 63%
17:00 -2°C° 0 mm 4 mps 753 mmHg 69%
18:00 -2°C° 0 mm 3 mps 754 mmHg 75%
19:00 -4°C° 0 mm 2 mps 754 mmHg 81%
20:00 -4°C° 0 mm 2 mps 754 mmHg 82%
21:00 -4°C° 0 mm 2 mps 755 mmHg 83%
22:00 -4°C° 0 mm 2 mps 755 mmHg 84%
23:00 -2°C° 0 mm 1 mps 755 mmHg 83%

9 Marzo, Martes

Tiempo Temperatura Precipitaciones Viento Presión Humedad
00:00 -3°C° 0 mm 1 mps 755 mmHg 83%
01:00 -3°C° 0 mm 1 mps 755 mmHg 83%
02:00 -3°C° 0 mm 1 mps 755 mmHg 82%
03:00 -2°C° 0 mm 1 mps 755 mmHg 80%
04:00 -2°C° 0 mm 1 mps 755 mmHg 79%
05:00 -2°C° 0 mm 1 mps 755 mmHg 77%
06:00 -3°C° 0 mm 0 mps 755 mmHg 75%
07:00 -3°C° 0 mm 0 mps 755 mmHg 73%
08:00 -2°C° 0 mm 1 mps 756 mmHg 68%
09:00 -1°C° 0 mm 1 mps 756 mmHg 63%
10:00 -1°C° 0 mm 1 mps 756 mmHg 58%
11:00 -2°C° 0 mm 2 mps 756 mmHg 54%
12:00 -2°C° 0 mm 2 mps 756 mmHg 51%
13:00 -1°C° 0 mm 2 mps 756 mmHg 48%
14:00 -1°C° 0 mm 2 mps 755 mmHg 48%
15:00 -1°C° 0 mm 2 mps 755 mmHg 48%
16:00 -1°C° 0 mm 2 mps 754 mmHg 47%
17:00 -2°C° 0 mm 2 mps 754 mmHg 52%
18:00 -3°C° 0 mm 2 mps 755 mmHg 56%
19:00 -3°C° 0 mm 2 mps 755 mmHg 61%
20:00 -3°C° 0 mm 2 mps 755 mmHg 62%
21:00 -4°C° 0 mm 2 mps 755 mmHg 64%
22:00 -4°C° 0 mm 2 mps 755 mmHg 65%
23:00 -4°C° 0 mm 2 mps 754 mmHg 65%

10 Marzo, Miércoles

Tiempo Temperatura Precipitaciones Viento Presión Humedad
00:00 -4°C° 0 mm 2 mps 754 mmHg 66%
01:00 -4°C° 0 mm 2 mps 754 mmHg 66%
02:00 -4°C° 0 mm 2 mps 754 mmHg 66%
03:00 -4°C° 0 mm 2 mps 754 mmHg 66%
04:00 -4°C° 0 mm 2 mps 754 mmHg 66%
05:00 -4°C° 0 mm 2 mps 754 mmHg 67%
06:00 -4°C° 0 mm 2 mps 754 mmHg 68%
07:00 -4°C° 0 mm 2 mps 754 mmHg 69%
08:00 -2°C° 0 mm 2 mps 754 mmHg 64%
09:00 -1°C° 0 mm 2 mps 754 mmHg 60%
10:00 0°C° 0 mm 3 mps 754 mmHg 55%
11:00 +1°C° 0 mm 3 mps 754 mmHg 52%
12:00 +2°C° 0 mm 3 mps 753 mmHg 49%
13:00 +2°C° 0 mm 3 mps 753 mmHg 45%
14:00 +2°C° 0 mm 3 mps 753 mmHg 48%
15:00 +2°C° 0 mm 3 mps 752 mmHg 51%
16:00 +2°C° 0 mm 3 mps 752 mmHg 54%
17:00 +1°C° 0 mm 3 mps 752 mmHg 62%
18:00 0°C° 0 mm 3 mps 751 mmHg 69%
19:00 -1°C° 0 mm 3 mps 751 mmHg 77%
20:00 -1°C° 0 mm 4 mps 751 mmHg 82%
21:00 -1°C° 0 mm 4 mps 750 mmHg 87%
22:00 -1°C° 0 mm 5 mps 750 mmHg 92%
23:00 -1°C° 0 mm 5 mps 749 mmHg 92%

11 Marzo, Jueves

Tiempo Temperatura Precipitaciones Viento Presión Humedad
00:00 -1°C° 0 mm 5 mps 748 mmHg 92%
01:00 -2°C° 0 mm 6 mps 748 mmHg 92%
02:00 -2°C° 0 mm 6 mps 747 mmHg 90%
03:00 -2°C° 0 mm 6 mps 746 mmHg 87%
04:00 -2°C° 0 mm 6 mps 745 mmHg 85%
05:00 -1°C° 0.1 mm 6 mps 744 mmHg 86%
06:00 -1°C° 0.1 mm 7 mps 743 mmHg 87%
07:00 -1°C° 0.1 mm 7 mps 742 mmHg 87%
08:00 0°C° 0.4 mm 7 mps 742 mmHg 90%
09:00 0°C° 0.4 mm 8 mps 741 mmHg 92%
10:00 0°C° 0.4 mm 8 mps 740 mmHg 94%
11:00 +1°C° 0.2 mm 8 mps 740 mmHg 94%
12:00 +2°C° 0.2 mm 8 mps 739 mmHg 93%
13:00 +2°C° 0.2 mm 8 mps 738 mmHg 93%
14:00 +4°C° 0 mm 8 mps 737 mmHg 90%
15:00 +5°C° 0 mm 8 mps 737 mmHg 86%
16:00 +6°C° 0 mm 8 mps 736 mmHg 83%
17:00 +6°C° 0.3 mm 8 mps 736 mmHg 84%
18:00 +6°C° 0.3 mm 9 mps 735 mmHg 84%
19:00 +6°C° 0.3 mm 10 mps 735 mmHg 84%
20:00 +5°C° 0.1 mm 9 mps 736 mmHg 81%
21:00 +3°C° 0.1 mm 9 mps 736 mmHg 79%
22:00 +4°C° 0.1 mm 8 mps 737 mmHg 76%
23:00 +2°C° 0 mm 8 mps 737 mmHg 78%
Mostrar más

Necesitamos Su Consentimiento

Meteoprog y nuestros Proveedores de Servicios pueden almacenar y acceder a sus datos personales como cookies, identificadores de dispositivo u otras tecnologías similares de su dispositivo y procesar dichos datos para personalizar contenido y anuncios, además de ofrecer funciones de redes sociales y analizar el tráfico.

  • Almacenar y/o acceder a información en su dispositivo

    Se puede almacenar o acceder a cookies, identificadores de dispositivo u otra información de su dispositivo para los fines anteriormente indicados.

  • Anuncios y contenido personalizados, medición de anuncios y contenido, percepciones del público, y desarrollo de productos

    Los anuncios y el contenido pueden personalizarse en base a su perfil. Se pueden añadir más datos para personalizar mejor los anuncios y contenidos. Se puede medir el rendimiento de los anuncios y contenidos. Se puede obtener la percepción sobre el público que ha visto los anuncios y contenidos. Dichos datos pueden usarse para desarrollar o mejorar la experiencia del usuario, sistemas y software.

Al hacer clic en ‘Estoy De Acuerdo’ usted permitirá el uso de las cookies, identificadores de dispositivo, balizas web u otras tecnologías similares indicadas. Su configuración puede cambiarse desde el navegador de su dispositivo.

Para ciertos fines, los intereses legítimos pueden ser considerados por encima del consentimiento. Puede leer más sobre ello en nuestra Política de Privacidad y Cookies.